This is the latest recevied weather packets stored in our database for station/object KD4WLE. If no packets are shown the sender has not sent any weather packets the latest 10 day(s).
| Time | Temp. | Humidity | Pressure | Rain* | Wind** | Luminosity | Snow |
|---|---|---|---|---|---|---|---|
| 1777724040 | 21.67° C | 99% | 1011.5 hPa | 0 mm | - | 89 W/m² | - |
| 1777723737 | 21.67° C | 99% | 1011.4 hPa | 0 mm | - | 69 W/m² | - |
| 1777723433 | 21.11° C | 99% | 1011.3 hPa | 0 mm | - | 74 W/m² | - |
| 1777723130 | 21.11° C | 99% | 1011.2 hPa | 0 mm | - | 74 W/m² | - |
| 1777722828 | 21.11° C | 99% | 1011.1 hPa | 0 mm | - | 63 W/m² | - |
| 1777722523 | 21.11° C | 99% | 1011.1 hPa | 0 mm | - | 49 W/m² | - |
| 1777722221 | 21.11° C | 99% | 1011.1 hPa | 0 mm | - | 38 W/m² | - |
| 1777721918 | 21.11° C | 99% | 1010.9 hPa | 0 mm | - | 41 W/m² | - |
| 1777721615 | 20.56° C | 99% | 1010.9 hPa | 0 mm | - | 39 W/m² | - |
| 1777721314 | 20.56° C | 99% | 1010.9 hPa | 0 mm | - | 35 W/m² | - |
| 1777721010 | 20.56° C | 99% | 1010.7 hPa | 0 mm | - | 28 W/m² | - |
| 1777720708 | 20.56° C | 99% | 1010.4 hPa | 0 mm | - | 22 W/m² | - |
| 1777720405 | 20.56° C | 99% | 1010.7 hPa | 0 mm | - | 15 W/m² | - |
| 1777720103 | 20.56° C | 99% | 1010.6 hPa | 0 mm | - | 12 W/m² | - |
| 1777719801 | 20.56° C | 99% | 1010.3 hPa | 0 mm | - | 11 W/m² | - |
| 1777719498 | 20.56° C | 99% | 1010.3 hPa | 0 mm | - | 9 W/m² | - |
| 1777719195 | 20° C | 99% | 1010.4 hPa | 0 mm | - | 6 W/m² | - |
| 1777718892 | 20° C | 99% | 1010.3 hPa | 0 mm | - | 4 W/m² | - |
| 1777718589 | 20° C | 99% | 1010.3 hPa | 0 mm | - | 2 W/m² | - |
| 1777718287 | 20° C | 99% | 1010.1 hPa | 0 mm | - | 1 W/m² | - |
| 1777717984 | 20° C | 99% | 1010.3 hPa | 0 mm | - | 1 W/m² | - |
| 1777717681 | 20° C | 99% | 1010.1 hPa | 0 mm | - | 0 W/m² | - |
| 1777717377 | 20° C | 99% | 1010.2 hPa | 0 mm | - | 0 W/m² | - |
| 1777717075 | 20° C | 99% | 1010.6 hPa | 0 mm | - | 0 W/m² | - |
| 1777716773 | 20.56° C | 99% | 1010.5 hPa | 0 mm | - | 0 W/m² | - |
* Rain latest hour (hover to see other rain measurements)
** Current wind speed in m/s (hover to see current wind gust speed)